RH
96 94 92 92 88 85 84 88 89 91 90 91 92 94 95 96 90 95 97 95 94 95 92 83 78 72 74 73 78 72 72 68 73 80 84 86 86 76 78 78 82 79 91 89 89 89 85 62 66 70 64 75 68 65
97 94 92 89 88 86 86 88 88 89 90 90 92 93 94 96 93 92 98 92 92 96 93 92 87 85 72 78 75 77 81 75 72 85 89 88 86 87 83 83 75 76 76 84 77 76 64 68 62 63 60 60 65 71
95 94 91 88 88 87 85 83 84 87 90 89 90 91 92 94 92 92 98 96 96 96 96 93 92 80 67 68 61 77 79 69 80 83 90 91 83 88 89 85 82 78 73 76 69 73 74 64 68 66 64 63 61 64
95 94 89 88 88 86 84 82 81 85 85 86 87 90 93 94 94 92 98 97 94 96 98 97 76 84 73 72 67 60 64 71 75 83 91 89 86 84 90 85 86 74 80 82 84 75 70 73 68 68 67 68 76 78
96 92 89 89 89 88 86 84 78 81 86 85 91 92 94 96 95 96 98 98 98 92 98 98 87 77 74 72 66 63 66 72 78 88 91 94 94 90 96 96 97 89 81 86 86 74 72 75 76 74 77 78 72 71
95 92 90 90 89 88 86 85 82 83 85 88 90 91 93 97 96 98 99 98 99 98 92 98 90 83 83 82 82 80 81 84 89 92 95 94 87 88 98 88 79 84 80 71 75 73 68 75 80 80 81 81 79 85
94 93 90 89 89 89 87 86 85 84 85 86 91 92 96 95 97 98 98 99 97 95 96 100 99 85 80 85 91 91 88 95 92 96 96 94 89 92 98 92 81 82 79 77 78 74 80 83 82 83 88 97 92 89
98 96 92 91 90 89 89 86 86 84 84 88 91 96 94 94 95 97 98 96 98 96 94 100 100 93 80 97 98 94 98 94 96 98 96 96 96 96 98 89 84 81 80 82 86 84 81 86 92 97 89 89 90 90
90 96 96 94 90 90 88 87 87 84 84 90 96 92 91 96 97 99 91 94 96 93 100 99 99 100 86 96 96 94 93 98 99 98 96 94 98 98 90 86 85 83 77 81 92 96 99 99 97 94 91 87 93 92
88 90 93 96 94 92 91 89 88 85 89 95 92 93 100 99 88 87 90 93 99 99 98 99 93 99 90 94 98 93 93 99 100 96 93 99 99 87 86 85 82 79 81 91 85 85 96 98 96 99 93 90 96 90
86 88 92 94 95 95 93 90 88 88 94 97 98 100 99 88 91 93 100 99 98 100 98 98 94 97 89 95 97 90 97 99 97 93 91 94 97 89 78 86 89 93 90 88 82 86 89 89 91 92 93 93 92 79
85 86 88 92 94 94 95 93 91 93 97 90 93 94 96 95 100 93 95 96 99 87 99 98 98 94 99 92 94 95 92 96 93 93 92 92 86 80 69 75 79 81 78 80 85 81 83 87 89 92 93 92 75 48
77 86 88 88 90 92 93 95 95 92 82 91 95 100 94 100 99 94 99 90 98 99 100 100 100 95 99 97 96 98 96 96 92 97 91 91 86 84 82 67 72 79 82 82 73 70 73 86 88 89 84 62 55 51
77 80 85 86 88 89 90 93 95 95 96 99 100 99 96 99 94 94 92 94 96 99 100 98 98 97 97 99 97 96 97 89 98 100 94 87 90 78 78 76 67 66 74 75 75 68 55 60 71 64 62 54 51 50
79 74 81 85 86 86 89 91 96 99 99 100 96 92 98 93 99 99 99 99 100 97 93 94 97 90 99 97 92 97 98 97 88 89 90 94 90 90 75 65 63 64 66 74 81 79 70 56 50 48 49 51 52 53
80 77 85 78 80 85 92 93 98 99 100 100 99 99 98 96 100 100 100 99 99 96 94 95 92 98 96 96 96 96 92 91 90 95 94 96 80 74 67 62 61 64 71 76 83 87 78 65 57 54 52 60 61 62
80 92 74 75 77 84 92 97 99 100 100 100 99 96 98 97 98 98 96 99 93 95 100 93 94 86 94 95 99 96 93 93 94 94 97 93 87 80 75 74 67 64 70 77 85 89 89 68 61 59 60 62 68 67
93 88 71 70 82 89 97 100 100 100 99 100 98 100 96 93 94 98 98 97 95 99 98 98 91 100 96 95 96 91 93 98 96 95 95 90 88 87 86 83 72 71 70 76 90 95 92 89 78 67 81 89 87 85
87 86 85 85 85 97 100 100 100 99 99 100 99 100 98 96 93 94 98 97 96 96 96 98 97 97 96 94 90 96 97 96 76 79 84 81 84 86 86 90 90 91 94 96 92 93 90 80 73 74 76 74 70 66
75 70 86 93 93 100 100 100 100 99 98 99 97 99 99 99 98 98 98 98 98 99 98 99 96 94 87 83 94 94 94 88 89 89 89 89 86 90 89 92 86 90 90 93 97 85 95 84 75 70 71 67 69 75
81 87 92 96 100 100 100 99 99 99 99 98 99 98 98 98 98 99 100 99 98 98 98 97 95 86 92 90 86 86 86 89 90 91 88 94 87 94 97 98 97 93 91 93 90 89 76 79 80 82 89 69 73 76
94 93 99 98 100 100 99 99 99 98 96 98 98 97 98 99 99 99 99 99 99 95 94 93 96 94 92 84 84 84 84 81 85 87 75 79 85 96 97 97 97 99 99 96 96 94 89 88 83 86 88 94 84 90
87 98 100 100 98 98 98 100 97 98 97 98 98 97 98 99 99 98 99 98 97 94 97 97 94 91 89 85 76 74 68 74 82 87 89 93 95 99 99 99 96 95 98 98 96 88 92 76 80 89 89 91 96 92
80 95 93 98 97 97 93 98 97 96 97 96 97 96 97 97 97 97 98 97 96 95 94 95 97 96 96 93 93 91 92 90 91 95 96 98 100 98 96 96 96 96 93 86 89 92 92 92 80 94 96 97 97 97
93 96 90 99 93 90 92 97 97 95 96 96 96 99 98 96 98 99 98 94 94 95 93 90 97 98 99 99 91 83 93 97 98 99 98 97 94 92 95 85 79 83 85 92 92 91 97 97 97 97 97 98 97 96
97 97 89 96 94 95 89 95 94 96 96 100 98 96 97 97 99 91 93 97 99 98 98 100 100 99 93 81 83 93 97 96 97 95 96 96 94 93 96 92 93 91 91 86 95 96 96 97 97 97 97 96 92 96
100 99 96 78 91 90 96 87 85 96 100 98 97 98 98 98 98 87 98 97 98 97 97 98 99 100 100 92 84 91 92 95 98 97 89 88 86 84 89 90 92 92 91 92 96 95 97 98 98 98 98 98 98 98
88 86 94 96 98 97 97 99 100 99 96 90 86 100 93 87 85 97 98 98 99 100 100 99 99 99 100 100 99 90 97 96 89 82 70 73 80 90 91 91 93 81 96 96 96 97 97 98 98 99 100 98 95 91
98 95 94 94 100 100 97 94 93 93 83 94 92 93 93 95 100 100 99 98 100 100 100 100 99 99 98 98 97 97 97 98 96 95 89 89 86 93 95 95 96 96 98 97 75 80 90 94 95 95 97 96 91 93
98 97 97 100 99 100 96 94 96 99 96 90 86 96 96 98 100 99 98 99 99 100 100 99 99 98 98 99 99 96 95 96 96 95 92 91 92 96 97 98 98 98 98 97 98 98 80 91 91 96 95 94 91 90
98 98 99 99 97 97 97 97 96 88 94 99 95 96 98 100 99 99 100 99 99 99 98 98 98 97 96 97 98 97 97 96 95 90 90 89 96 97 98 98 98 98 98 98 98 98 98 99 99 99 96 96 94 92
97 92 98 100 100 98 99 99 99 98 98 98 98 99 98 96 96 98 98 99 98 98 92 96 95 96 96 96 96 96 90 95 96 96 94 96 96 96 97 98 98 98 97 97 97 98 99 100 99 98 95 96 93 91
97 97 98 98 100 100 99 96 98 98 98 99 99 98 97 94 96 98 96 96 97 96 95 96 96 96 95 94 94 94 93 95 92 87 83 80 88 92 96 98 98 96 96 97 97 98 98 100 100 96 96 97 94 92
Wind_Speed
21 19 17 16 14 12 11 9 7 5 3 3 1 2 4 2 4 2 1 3 2 4 1 3 2 4 3 2 5 4 4 2 3 3 3 3 3 4 3 4 6 6 6 4 3 2 8 2 2 3 4 2 3 4
22 21 18 18 16 14 12 11 8 6 5 3 2 2 3 3 2 4 1 2 2 5 3 0 1 1 2 2 6 1 2 3 4 5 2 3 2 1 4 3 1 3 6 6 8 7 2 3 5 3 4 4 3 2
20 23 21 19 17 16 14 12 10 8 6 4 2 2 4 5 4 4 1 2 3 4 3 4 3 4 3 4 2 6 2 3 2 2 4 3 3 4 4 5 2 2 2 2 1 1 6 4 2 2 4 6 6 5
22 24 23 21 19 17 15 14 12 11 8 7 4 3 5 6 4 4 2 2 2 3 4 1 2 4 5 3 4 3 5 5 5 3 3 2 2 3 3 2 3 6 2 3 3 5 3 4 5 6 6 5 3 2
26 26 25 23 21 19 17 15 14 11 10 8 7 5 5 7 7 4 3 2 3 2 3 2 2 4 5 2 6 6 6 5 3 3 3 1 0 3 2 3 4 5 7 5 5 4 4 4 0 3 3 3 6 8
28 27 26 24 23 21 19 17 14 11 10 10 9 8 6 6 7 2 2 3 3 2 4 2 1 5 6 7 8 7 4 4 3 3 2 1 1 2 2 3 7 4 0 3 4 4 4 2 4 2 1 3 5 4
25 27 28 27 25 23 21 18 16 14 11 10 9 8 9 8 4 3 2 1 6 2 3 3 1 2 2 3 3 3 4 2 3 3 2 2 2 3 2 5 7 3 5 1 2 5 2 1 2 5 5 2 3 2
12 8 21 26 26 24 21 19 17 15 13 11 11 13 14 17 12 3 3 5 2 3 3 3 1 2 3 2 2 2 2 1 3 3 2 3 1 2 6 5 2 2 0 5 4 4 2 4 5 3 4 5 6 6
25 17 7 17 22 24 22 20 18 16 15 16 18 14 4 4 3 2 2 4 2 3 3 2 4 3 1 2 2 2 1 3 1 2 2 3 3 8 5 4 5 5 4 5 3 1 4 2 5 6 5 5 5 5
20 22 20 14 20 20 22 21 20 18 18 21 5 3 2 1 1 1 3 2 4 3 2 2 2 3 2 2 2 3 2 2 2 1 3 2 5 6 5 7 5 5 4 7 3 3 3 3 5 4 6 5 7 6
14 14 19 16 12 15 17 20 21 22 19 2 3 3 2 2 3 3 2 2 1 1 3 2 2 4 1 3 3 1 2 1 2 4 3 2 5 3 5 3 2 3 5 6 4 3 4 4 5 5 5 5 5 5
12 10 8 12 11 10 11 17 19 12 3 6 7 6 3 3 3 4 4 2 4 6 3 4 3 3 2 3 3 1 3 1 4 2 3 4 5 2 3 5 5 6 7 6 5 5 5 5 6 6 5 5 6 5
7 10 9 6 8 8 9 10 12 17 16 3 5 4 4 1 3 9 10 5 5 5 5 4 4 4 3 2 4 3 4 3 4 3 5 6 3 3 3 2 1 1 1 1 3 3 5 5 4 4 5 4 5 5
5 5 9 6 5 6 7 10 19 10 2 3 5 7 7 6 7 7 6 5 3 5 9 6 4 3 2 3 3 4 3 4 3 3 6 3 4 2 1 1 0 4 7 7 7 6 6 6 6 6 6 5 6 6
8 4 4 7 6 3 7 10 11 1 2 3 4 7 7 3 2 2 2 3 1 5 7 5 4 3 2 4 2 4 4 4 6 6 4 4 4 4 4 4 7 7 6 5 3 4 6 6 6 6 6 6 7 6
7 5 4 6 7 3 6 4 1 2 2 2 3 2 3 5 2 1 1 3 3 5 4 4 5 4 3 4 3 5 8 6 4 4 4 3 4 6 6 6 7 5 5 6 6 5 6 6 7 7 4 6 6 6
2 2 5 7 5 5 3 3 1 2 4 4 2 1 3 3 4 4 4 3 3 4 4 4 6 6 4 4 3 3 5 5 5 4 3 5 6 7 7 6 6 6 6 6 5 6 6 5 5 4 6 5 6 5
2 4 8 7 4 4 2 2 1 3 3 1 3 2 1 2 6 4 3 4 3 3 3 5 5 3 6 6 4 5 5 2 3 4 3 4 5 6 5 7 6 6 6 6 5 4 2 3 5 5 4 3 3 1
4 3 5 8 4 2 1 2 1 1 1 3 2 1 2 2 3 5 5 3 3 3 6 2 5 3 4 4 4 3 3 3 1 1 3 3 4 6 6 5 4 4 4 3 3 4 3 5 2 2 2 3 2 1
8 4 4 12 6 2 1 1 1 2 0 1 2 3 2 3 2 4 4 2 3 3 3 2 5 5 5 4 4 4 3 3 3 2 4 4 4 3 5 4 4 2 2 1 1 2 2 2 1 2 3 2 2 1
4 1 5 5 2 2 1 2 2 2 1 3 2 3 3 3 3 3 2 1 3 2 3 5 5 4 1 1 2 3 2 4 5 5 5 4 3 3 2 1 3 3 2 2 2 2 3 2 2 2 3 3 2 2
1 7 2 1 1 2 0 3 2 1 3 1 3 3 3 2 2 2 2 1 3 4 5 4 3 2 1 3 1 2 2 2 3 3 4 3 2 0 1 2 3 2 1 2 3 3 2 2 2 3 3 2 3 2
6 3 2 2 1 2 1 1 4 2 4 3 2 3 1 2 1 0 1 3 3 3 1 1 0 2 2 1 2 2 1 2 3 3 2 2 2 2 2 2 2 4 3 2 2 3 3 4 4 3 3 3 2 3
4 3 3 2 3 2 3 3 2 2 2 2 3 4 2 2 1 1 3 3 3 2 3 4 2 2 3 3 3 2 3 1 1 2 2 4 3 2 3 2 2 3 3 4 4 3 3 3 5 3 3 2 2 3
3 3 6 1 1 3 2 2 2 2 2 2 3 2 2 1 2 3 4 4 1 2 2 3 3 3 2 2 2 1 4 3 1 2 2 2 4 4 4 3 4 4 2 4 3 3 2 2 2 2 2 2 4 6
2 2 4 5 2 4 4 4 4 3 3 3 1 2 1 3 2 6 4 2 1 1 1 1 1 3 2 2 2 2 3 4 2 3 2 2 2 3 4 4 2 2 2 3 4 3 2 1 1 3 4 6 11 7
3 4 2 1 3 4 2 2 2 3 3 5 4 4 3 3 6 4 1 0 1 1 1 1 1 1 2 2 1 3 3 3 4 4 4 4 4 2 3 4 3 2 2 4 3 3 2 2 2 3 5 4 4 4
4 5 7 4 2 1 5 2 3 5 3 3 5 4 8 9 6 2 3 1 2 1 0 1 1 1 2 1 1 3 3 3 5 6 7 7 7 5 5 4 3 10 3 2 2 1 1 2 2 3 3 5 7 5
3 2 4 5 2 1 4 6 6 4 3 5 6 5 5 1 1 1 1 0 1 1 2 2 2 2 3 3 3 3 3 3 1 4 5 3 2 2 3 3 3 3 2 2 5 4 3 2 1 2 3 4 6 6
4 3 5 3 6 7 5 5 3 3 1 3 3 3 2 2 1 1 2 3 2 1 2 3 2 2 2 2 1 4 4 3 2 1 4 3 3 3 2 2 2 2 2 2 2 3 7 4 5 4 4 4 5 6
3 4 4 2 5 3 2 1 3 3 3 2 2 3 3 2 0 2 2 1 1 1 3 2 2 2 3 2 2 3 2 3 4 5 6 5 4 3 2 2 1 1 1 2 3 2 3 3 2 4 6 7 9 10
3 6 5 4 2 4 2 2 2 2 1 2 1 2 2 2 2 1 3 2 1 2 3 4 3 2 2 2 2 2 7 3 2 2 2 3 2 2 2 2 1 1 2 2 2 2 2 2 4 5 7 8 10 11
2 2 3 3 2 1 2 3 2 2 3 2 1 1 1 0 2 1 1 3 2 3 3 3 3 3 4 4 4 4 4 2 3 4 3 6 10 7 3 2 2 1 1 1 2 2 3 4 4 7 8 8 10 12
Wind_Direction
202 202 194 187 186 197 210 203 206 216 195 199 190 48 44 11 3 68 237 333 117 105 354 33 63 125 80 105 140 185 91 334 50 82 120 179 129 206 117 166 176 161 139 185 107 162 264 299 20 179 171 65 75 45
211 194 187 182 177 188 194 189 183 200 183 183 150 96 49 52 37 9 67 328 338 82 151 308 75 78 36 134 126 54 145 160 169 95 75 108 107 75 153 220 109 194 182 181 178 212 179 355 113 136 134 142 183 186
244 184 180 178 172 184 187 187 187 188 172 160 142 112 100 59 73 68 125 322 54 88 24 54 9 344 36 35 164 116 301 143 87 147 147 141 136 136 167 232 196 271 171 203 109 136 138 126 86 163 175 187 212 217
227 178 177 174 167 179 183 185 190 182 176 168 169 151 117 102 115 43 60 332 58 112 108 34 334 28 337 6 33 80 120 74 95 63 90 125 142 168 190 161 177 210 132 170 263 289 107 158 209 198 225 238 256 263
196 175 173 171 166 173 180 182 181 181 178 177 156 150 122 111 121 86 69 33 32 89 130 135 95 354 350 72 97 76 85 88 75 67 67 155 120 129 73 77 234 200 186 175 230 225 154 236 168 178 184 217 240 229
180 172 170 167 166 173 177 176 175 176 172 173 151 141 132 125 136 98 49 0 355 33 99 93 19 15 15 63 68 65 59 67 85 108 119 227 19 109 108 248 262 228 101 174 189 184 201 273 105 130 148 5 5 30
170 175 168 165 168 170 172 172 174 172 159 150 141 124 114 94 71 78 135 334 324 14 84 80 145 329 345 64 42 48 33 54 85 107 71 107 341 76 161 222 261 258 191 228 54 116 104 172 312 44 43 29 312 269
23 165 171 165 165 167 168 170 167 165 155 141 127 120 106 103 115 69 7 355 339 90 77 117 110 122 339 94 91 358 76 36 31 105 85 122 39 62 256 211 219 128 140 139 130 57 111 76 97 156 242 253 252 256
3 30 167 179 167 165 166 165 164 161 150 135 122 119 81 43 85 121 327 4 37 83 140 130 152 174 136 86 90 52 61 84 38 98 144 123 183 224 226 179 213 217 199 187 156 42 22 233 236 245 246 270 262 272
0 6 14 20 179 171 167 165 160 156 143 132 107 96 118 118 153 296 19 57 25 354 59 183 114 130 146 117 87 96 21 102 143 144 113 236 254 261 229 203 208 206 195 145 141 280 220 256 255 278 248 239 228 226
6 5 353 360 18 162 166 168 161 151 141 144 122 101 86 143 78 44 90 122 170 304 189 162 147 126 343 116 105 44 141 109 122 253 164 283 274 258 344 104 120 157 152 192 205 177 206 235 253 253 256 222 220 208
356 7 347 346 357 16 169 172 165 160 143 154 120 105 110 85 86 136 181 150 198 209 185 147 139 118 119 89 97 156 130 111 190 126 128 242 250 253 151 155 163 168 171 177 187 211 233 250 251 247 238 212 204 186
338 350 345 334 327 345 354 192 176 129 122 101 65 92 123 146 155 183 178 192 195 183 168 151 130 129 130 97 106 131 140 162 122 148 224 231 250 260 200 142 116 190 222 237 221 226 228 241 242 208 218 209 184 187
290 334 328 328 306 291 310 315 150 143 85 109 151 140 189 191 215 187 184 171 182 129 135 121 100 115 116 99 133 127 113 133 159 212 238 244 243 280 190 274 240 242 227 230 231 226 222 214 222 223 215 191 180 200
295 264 307 321 284 267 282 286 183 41 103 141 143 202 195 191 112 136 116 103 105 139 125 101 71 89 99 114 171 121 129 175 203 224 228 230 223 180 200 220 229 244 249 264 252 250 244 229 217 221 212 201 201 204
295 298 235 232 267 265 298 246 347 62 41 192 160 105 116 122 131 134 110 126 184 125 91 68 124 130 154 144 139 187 150 211 224 214 219 166 189 201 225 237 247 251 250 258 262 253 247 226 217 221 208 211 218 214
245 258 303 222 238 227 272 74 99 159 195 180 231 202 132 89 143 163 131 167 149 84 129 131 115 185 110 117 152 196 203 207 199 220 199 197 195 216 225 251 248 237 241 247 253 253 240 234 205 187 222 224 218 216
219 286 322 218 195 87 335 103 175 187 166 115 143 219 192 120 117 117 113 147 117 116 116 181 123 103 151 148 226 225 223 225 214 182 198 226 234 248 225 242 246 231 241 255 245 255 226 179 198 221 201 189 173 189
200 179 18 317 251 115 207 146 215 118 90 107 101 9 65 98 60 97 107 90 80 103 106 63 96 161 211 210 206 224 220 193 186 228 233 253 229 234 245 224 222 211 220 227 227 239 237 213 219 181 186 156 177 134
207 210 90 10 330 124 265 64 28 105 106 135 85 64 55 47 64 70 102 84 82 71 86 140 200 211 191 212 182 174 174 164 144 293 287 282 263 215 233 197 206 194 171 132 325 136 85 96 90 127 136 142 124 299
169 147 83 76 311 59 345 139 90 71 85 60 101 64 59 26 37 47 84 105 64 145 202 223 230 246 97 198 127 137 189 162 204 196 233 270 272 177 170 152 136 132 153 185 198 228 168 170 143 99 88 82 54 339
187 86 76 74 344 92 16 5 88 56 64 26 47 58 97 117 133 164 139 168 204 211 196 197 222 180 292 296 324 168 245 249 251 255 246 189 158 87 215 183 128 172 188 204 165 156 119 117 105 86 78 50 32 351
90 64 33 349 82 57 89 289 79 50 119 136 83 94 118 97 148 5 197 236 250 245 196 167 189 65 85 97 70 22 343 275 278 274 271 164 110 85 80 111 128 136 119 27 76 104 115 102 83 79 42 32 5 322
30 68 112 51 23 71 34 50 75 86 67 98 120 121 136 103 44 54 260 262 256 340 30 12 14 37 30 28 40 359 352 342 48 52 80 120 104 92 89 67 59 76 97 112 93 91 75 61 65 43 29 349 295 282
79 316 90 44 25 84 104 55 55 78 102 106 106 136 162 64 114 206 237 261 285 21 25 350 18 44 126 313 337 22 20 19 105 111 9 97 110 97 75 66 58 45 56 101 92 97 74 54 36 6 311 277 280 287
207 161 176 188 160 125 172 163 171 146 137 124 137 120 90 113 138 240 220 219 206 213 46 33 19 7 35 48 340 2 349 340 359 92 30 56 133 142 143 141 121 25 21 102 108 111 102 31 316 319 302 316 327 332
156 220 205 166 122 106 64 24 46 115 157 159 162 152 120 147 229 247 145 299 149 223 288 310 169 174 237 303 61 41 14 14 62 91 74 56 45 54 127 147 154 156 115 104 108 130 178 274 288 294 295 294 273 277
194 179 162 178 76 71 128 104 148 197 212 184 115 174 176 194 229 201 182 210 185 213 133 21 56 128 118 90 44 86 61 64 89 100 94 61 48 41 50 68 93 119 103 151 160 142 213 255 267 270 288 300 307 307
205 197 108 151 70 94 187 174 202 219 165 154 168 199 224 85 186 111 16 258 289 96 108 75 0 33 57 50 43 39 55 51 93 98 91 110 112 53 20 59 72 75 61 44 23 11 291 224 293 322 281 298 297 291
222 153 104 141 155 206 231 174 209 220 114 126 118 75 54 10 302 307 355 11 58 139 195 162 165 116 137 119 111 63 31 12 338 162 146 169 180 136 124 108 88 57 47 52 14 337 357 25 352 352 339 323 322 315
138 96 73 130 203 261 233 264 22 58 52 68 25 109 160 177 48 33 28 325 318 19 93 88 79 118 143 121 105 116 94 357 9 62 84 96 112 126 142 153 147 123 70 39 24 14 359 340 316 317 323 322 317 330
170 184 148 158 264 282 27 92 119 88 56 83 72 104 127 138 192 348 331 342 101 86 159 130 113 85 62 71 41 54 112 113 81 66 112 143 156 164 155 146 126 96 60 30 5 335 320 311 308 316 316 310 310 312
71 83 90 96 83 173 222 119 109 78 30 41 357 32 133 203 165 168 326 17 50 77 84 78 77 74 76 75 73 78 75 15 346 3 240 202 167 156 155 158 142 151 203 269 301 310 316 312 306 313 313 309 307 307